STARLINK-35133, 65535

Orbit data source: Space-Track

STARLINK-35133, 65535 is a payload satellite owned by SpaceX/Seattle (US) in SSO that was launched on Sat, 06 Sep 2025 UTC via an FALCON 9 launch vehicle from the Air Force Eastern Test Range (AFETR). Payload-class satellites include a variety of spacecraft equipped with specific instruments for various scientific and technological missions. These include communications satellites like Starlink; space stations such as the ISS; scientific satellites like the Hubble; Earth observation satellites from companies like Planet Labs, Umbra, and HawkEye 360; GPS; miniature CubeSats for education and research; and military/defense satellites.

Loading next visibility...
Identifier
65535, 2025-200R
Orbit
SSO
Country
Flag of USUS
Related business
Manufacturer
SpaceX/Seattle
Mission
Operational Commercial Communications
Bus & Motor
STARLINK V2MO, Unknown motor
Mass
575 kg wet, ~530 kg dry
Launch date (UTC)
2025-09-06 (9 months ago)
Launch vehicle
FALCON 9
Launch site
Air Force Eastern Test Range (AFETR)
Object type
Payload
Rocket body
Debris
Shape & HBR
Box + 2 Pan, 17.7 m
Radar Cross Section
36.964 m², Large (>1 m²)

Expand to show TLE details & history
Last TLE update: 16 hours ago

TLE from 16 hours ago
0 STARLINK-35133
1 65535U 25200R   26171.16959216  .00004561  00000-0  31978-3 0  9996
2 65535  97.3342 239.7712 0000278 154.6769 205.4472 15.05659487 44552
Epoch: 2026-06-20T04:04Z
TLE epoch observation values (Epoch: 2026-06-20T04:04:12.762Z)
Latitude
-0.00005°
Longitude
-89.67004°
Altitude
552.729 km
Speed
7.585 km/s
True Right ascension
15h 59m 05s
True Declination
0° 00' 00"
Sunlit
Object was in full shadow at epoch
Visualization orbit readout
Latitude
Unknown
Longitude
Unknown
Altitude
Unknown
Speed
Unknown
Apparent Right ascension
Unknown
Apparent Declination
Unknown
Sunlit
N/A
Visualization observer readout
Local Sidereal Time
07:13:14
Azimuth
Unknown
Elevation
Unknown
Doppler factor
Unknown
Orbital elements
Apogee altitude
546.657 km
Perigee altitude
546.271 km
Semi-major axis
6,924.601 km
Eccentricity
0.00003
Inclination
97.3342°
RAAN
239.7712°
Arg. of periapsis
154.6769°
True anomaly
205.44583°
Mean anomaly
205.4472°
Eccentric anomaly
205.44652°
Mean motion
3.76661 °/min
Orbital period
95.58 mins
BSTAR
0.00031978
Loading maneuver chart data...
Computing Atmospheric mass density...
Loading historical data...
Loading historical data...
Loading historical data...
Loading historical data...
Loading historical data...
Loading historical data...
Loading historical data...

Documentation

Showing up to 5 results
|